Home > Weather > Chula Vista > Past weeks

Flag for U.S.A. Weather for the Past 2 Weeks in Chula Vista, California, U.S.A.

Now
50 °F

Sunny.


Feels Like: 46 °F
Forecast: 49 / 80 °F
Wind: 9 mph from Southeast

Location: Brown Field Municipal Airport

Current Time: Feb 14, 2016 at 7:34:27 AM

Latest Report: Feb 14, 2016 at 6:53 AM


Visibility: 4 mi

Pressure: 30.03 "Hg

Humidity: 83%

Dew point: 45 °F

Location of Chula VistaLocation

Historic Weather in Chula Vista — Graph

°F

Chula Vista Temperature Yesterday

Maximum temperature yesterday: 77 °F (at 11:53 AM)
Minimum temperature yesterday: 48 °F (at 5:53 AM)
Average temperature yesterday: 58 °F

High & Low Weather Summary for the Past Weeks

 TemperatureHumidityPressure
High86 °F (Feb 9, 1:53 PM)100% (Jan 30, 10:53 PM)30.35 "Hg (Jan 30, 10:53 PM)
Low36 °F (Feb 2, 2:53 AM)11% (Feb 7, 11:53 AM)29.70 "Hg (Jan 31, 2:53 PM)
Average59 °F48%30.11 "Hg
* Reported Jan 30 5:53 AM — Feb 14 5:53 AM, Chula Vista, Weather by CustomWeather, © 2016

Note: Actual official high and low records may vary slightly from our data, if they occured in-between our weather recording intervals... More about our weather records

Advertising

Chula Vista Weather History for the Previous 24 Hours

 ConditionsComfort  
Time TempWeatherWind HumidityBarometerVisibility
5:53 AM
Sun, Feb 14
46 °FFog.8 mph96%30.03 "Hg3 mi
4:53 AM48 °FFog.7 mph100%30.03 "Hg2 mi
3:55 AM46 °FFog.7 mph100%30.04 "Hg2 mi
2:53 AM48 °FFog.No wind100%30.04 "Hg0 mi
1:53 AM48 °FFog.No wind96%30.05 "Hg0 mi
12:53 AM52 °FFog.No wind97%30.06 "Hg4 mi
11:53 PM
Sat, Feb 13
54 °FFog.No wind90%30.06 "Hg4 mi
10:53 PM54 °FFog.7 mph86%30.03 "Hg5 mi
9:53 PM54 °FClear.7 mph86%30.04 "Hg7 mi
8:53 PM54 °FFog.No wind90%30.05 "Hg6 mi
7:53 PM54 °FClear.3 mph90%30.06 "Hg9 mi
6:53 PM52 °FClear.No wind89%30.04 "Hg8 mi
5:53 PM58 °FClear.7 mph84%30.03 "Hg10 mi
4:53 PM62 °FSunny.6 mph75%30.03 "Hg10 mi
3:53 PM66 °FSunny.8 mph63%30.01 "Hg10 mi
2:53 PM67 °FSunny.6 mph59%30.01 "Hg10 mi
1:53 PM65 °FSunny.7 mph66%30.03 "Hg9 mi
12:53 PM69 °FSunny.8 mph55%30.04 "Hg9 mi
11:53 AM77 °FSunny.6 mph29%30.04 "Hg10 mi
10:53 AM74 °FSunny.No wind29%30.06 "Hg8 mi
9:53 AM67 °FSunny.No wind36%30.09 "Hg6 mi
8:53 AM59 °FSunny.6 mph56%30.10 "Hg9 mi
7:53 AM49 °FFog.No wind100%30.11 "Hg0 mi
Weather by CustomWeather, © 2016

See weather overviewHow to use our weather pages